Weather History for Dubrovnik / Cilipi, Croatia

Change the Weather History Date:

Friday, February 7, 2014

  Actual Average Record
Temperature  
Mean Temperature 46 °F -  
Max Temperature 53 °F - - ()
Min Temperature 38 °F - - ()
Degree Days  
Heating Degree Days 20    
Moisture  
Dew Point 42 °F    
Average Humidity 79    
Maximum Humidity 93    
Minimum Humidity 59    
Precipitation  
Precipitation 0.00 in - - ()
Sea Level Pressure  
Sea Level Pressure 30.06 in    
Wind  
Wind Speed 8 mph ()    
Max Wind Speed 17 mph    
Max Gust Speed -    
Visibility 8.3 miles    
Events      
T = Trace of Precipitation, MM = Missing Value Source: Averaged Metar Reports

Daily Weather History Graph

Daily Weather History Graph

Search for Another Location

Airport:

Trip Planner

Search our weather history database for the weather conditions in past years. The results will help you decide how hot, cold, wet, or windy it might be!

Date:

Astronomy

Feb. 07, 2014 Rise Set
Actual Time 6:54 AM CET 5:08 PM CET
Civil Twilight 6:25 AM CET 5:37 PM CET
Nautical Twilight 5:51 AM CET 6:11 PM CET
Astronomical Twilight 5:18 AM CET 6:43 PM CET
Moon 11:06 AM CET (2/7) 12:53 AM CET (2/7)
Length of Visible Light 11h 12m
Length of Day
10h 13m
First Quarter, 56% of the Moon is Illuminated
Feb 7
First Quarter
Feb 15
Full
Feb 22
Last Quarter
Mar 1
New
Mar 8
First Quarter

Hourly Weather History & Observations

Time (CET) Temp. Windchill Dew Point Humidity Pressure Visibility Wind Dir Wind Speed Gust Speed Precip Events Conditions
12:00 AM 48.2 °F - 39.2 °F 71% 30.04 in - NNE 6.9 mph - N/A   Clear
12:30 AM 48.2 °F - 39.2 °F 71% 30.04 in - NNE 8.1 mph - N/A   Clear
1:00 AM 48 °F - 38 °F 59% 30.03 in 12 mi NE 6.7 mph - -  
1:00 AM 48.2 °F - 39.2 °F 71% 30.01 in - NE 6.9 mph - N/A   Clear
1:30 AM 46.4 °F 41.9 °F 37.4 °F 71% 30.01 in - NNE 9.2 mph - N/A   Clear
2:00 AM 46.4 °F - 37.4 °F 71% 30.04 in - Variable 2.3 mph - N/A   Clear
2:30 AM 46.4 °F 44.3 °F 37.4 °F 71% 30.04 in - NNE 4.6 mph - N/A   Clear
3:00 AM 41.0 °F 36.4 °F 37.4 °F 87% 30.04 in - East 6.9 mph - N/A   Clear
3:30 AM 41.0 °F 37.1 °F 37.4 °F 87% 30.04 in - ENE 5.8 mph - N/A   Clear
4:00 AM 41 °F - 37 °F 80% 30.06 in 12 mi East 4.5 mph - -  
4:00 AM 41.0 °F 37.1 °F 37.4 °F 87% 30.04 in - East 5.8 mph - N/A   Clear
4:30 AM 42.8 °F 37.5 °F 37.4 °F 81% 30.04 in - ENE 9.2 mph - N/A   Clear
5:00 AM 42.8 °F 38.6 °F 37.4 °F 81% 30.04 in - NE 6.9 mph - N/A   Clear
5:30 AM 39.2 °F 33.6 °F 37.4 °F 93% 30.04 in - East 8.1 mph - N/A   Clear
6:00 AM 41.0 °F 37.1 °F 37.4 °F 87% 30.04 in - East 5.8 mph - N/A   Clear
6:30 AM 42.8 °F 38.6 °F 37.4 °F 81% 30.06 in 6.2 mi East 6.9 mph - N/A   Mostly Cloudy
7:00 AM 44 °F - 39 °F 75% 30.09 in 12 mi East 8.9 mph - -   Mostly Cloudy
7:00 AM 44.6 °F 40.7 °F 39.2 °F 81% 30.06 in 6.2 mi East 6.9 mph - N/A   Mostly Cloudy
7:30 AM 44.6 °F 41.4 °F 39.2 °F 81% 30.06 in 6.2 mi East 5.8 mph - N/A   Mostly Cloudy
8:00 AM 44.6 °F 40.7 °F 39.2 °F 81% 30.06 in 6.2 mi East 6.9 mph - N/A   Mostly Cloudy
8:30 AM 46.4 °F 41.5 °F 39.2 °F 76% 30.06 in 6.2 mi East 10.4 mph - N/A   Mostly Cloudy
9:00 AM 48.2 °F - 39.2 °F 71% 30.09 in 6.2 mi East 5.8 mph - N/A   Mostly Cloudy
9:30 AM 50.0 °F - 42.8 °F 76% 30.09 in 6.2 mi East 3.5 mph - N/A   Mostly Cloudy
10:00 AM 52 °F - 43 °F 62% 30.11 in 19 mi East 4.5 mph - -   Mostly Cloudy
10:00 AM 51.8 °F - 42.8 °F 71% 30.09 in 6.2 mi ESE 5.8 mph - N/A   Mostly Cloudy
10:30 AM 53.6 °F - 44.6 °F 72% 30.09 in 6.2 mi East 6.9 mph - N/A   Mostly Cloudy
11:00 AM 53.6 °F - 42.8 °F 67% 30.09 in 6.2 mi East 9.2 mph - N/A   Mostly Cloudy
11:30 AM 51.8 °F - 46.4 °F 82% 30.09 in 6.2 mi SE 10.4 mph - N/A   Mostly Cloudy
12:00 PM 51.8 °F - 46.4 °F 82% 30.09 in 6.2 mi SE 11.5 mph - N/A   Mostly Cloudy
12:30 PM 53.6 °F - 46.4 °F 77% 30.09 in 6.2 mi SE 11.5 mph - N/A   Mostly Cloudy
1:00 PM 53 °F - 46 °F 71% 30.09 in 19 mi ESE 11.2 mph - -   Mostly Cloudy
1:00 PM 51.8 °F - 46.4 °F 82% 30.06 in 6.2 mi ESE 12.7 mph - N/A   Mostly Cloudy
1:30 PM 51.8 °F - 46.4 °F 82% 30.06 in 6.2 mi SE 9.2 mph - N/A   Mostly Cloudy
2:00 PM 51.8 °F - 46.4 °F 82% 30.06 in 6.2 mi SE 11.5 mph - N/A   Mostly Cloudy
2:30 PM 51.8 °F - 44.6 °F 76% 30.06 in 6.2 mi SE 11.5 mph - N/A   Mostly Cloudy
3:00 PM 51.8 °F - 44.6 °F 76% 30.06 in 6.2 mi SE 12.7 mph - N/A   Mostly Cloudy
3:30 PM 53.6 °F - 46.4 °F 77% 30.06 in 6.2 mi SSE 10.4 mph - N/A   Scattered Clouds
4:00 PM 53 °F - 47 °F 72% 30.07 in 19 mi SE 11.2 mph - -   Partly Cloudy
4:00 PM 53.6 °F - 46.4 °F 77% 30.06 in 6.2 mi SE 11.5 mph - N/A   Scattered Clouds
4:30 PM 51.8 °F - 46.4 °F 82% 30.04 in 6.2 mi SE 10.4 mph - N/A   Scattered Clouds
5:00 PM 51.8 °F - 44.6 °F 76% 30.06 in 6.2 mi SE 9.2 mph - N/A   Scattered Clouds
5:30 PM 50.0 °F - 44.6 °F 82% 30.06 in - ESE 8.1 mph - N/A   Clear
6:00 PM 48.2 °F - 44.6 °F 87% 30.06 in - East 9.2 mph - N/A   Clear
6:30 PM 48.2 °F - 44.6 °F 87% 30.06 in - East 10.4 mph - N/A   Clear
7:00 PM 47 °F - 44 °F 83% 30.09 in 12 mi East 8.9 mph - -  
7:00 PM 46.4 °F 41.9 °F 42.8 °F 87% 30.06 in - East 9.2 mph - N/A   Clear
7:30 PM 46.4 °F 41.5 °F 42.8 °F 87% 30.06 in - East 10.4 mph - N/A   Clear
8:00 PM 46.4 °F 41.1 °F 42.8 °F 87% 30.06 in - East 11.5 mph - N/A   Clear
8:30 PM 44.6 °F 39.2 °F 42.8 °F 93% 30.06 in - East 10.4 mph - N/A   Clear
9:00 PM 44.6 °F 38.8 °F 42.8 °F 93% 30.06 in - East 11.5 mph - N/A   Clear
9:30 PM 46.4 °F 40.4 °F 41.0 °F 81% 30.06 in - East 13.8 mph - N/A   Clear
10:00 PM 46 °F - 41 °F 78% 30.08 in 12 mi East 13.4 mph - -  
10:00 PM 46.4 °F 40.4 °F 42.8 °F 87% 30.06 in - ESE 13.8 mph - N/A   Clear
10:30 PM 46.4 °F 40.7 °F 42.8 °F 87% 30.06 in - East 12.7 mph - N/A   Clear
11:00 PM 48.2 °F - 42.8 °F 82% 30.04 in 6.2 mi East 17.3 mph - N/A   Scattered Clouds
11:30 PM 48.2 °F - 42.8 °F 82% 30.04 in 6.2 mi East 11.5 mph - N/A   Scattered Clouds